• In Russia
  • List of Countries
  • For 7 days
  • Water Temperature
  • Satellite Maps
  • Weather Map
  • Weather Widgets
  • user-avatar
    Login

    Hourly Weather Granada

    Today, 20 April, Saturday

    Time Temperature Precipitation Wind Pressure Humidity
    00:00 +10°C° 0 mm 1 mps 699 mmHg 73%
    01:00 +10°C° 0 mm 1 mps 698 mmHg 73%
    02:00 +10°C° 0 mm 1 mps 698 mmHg 73%
    03:00 +10°C° 0 mm 1 mps 697 mmHg 74%
    04:00 +10°C° 0 mm 1 mps 697 mmHg 75%
    05:00 +10°C° 0 mm 1 mps 697 mmHg 76%
    06:00 +10°C° 0 mm 1 mps 697 mmHg 77%
    07:00 +11°C° 0.1 mm 1 mps 697 mmHg 74%
    08:00 +12°C° 0.1 mm 1 mps 697 mmHg 71%
    09:00 +13°C° 0.1 mm 1 mps 697 mmHg 67%
    10:00 +14°C° 0.1 mm 1 mps 697 mmHg 63%
    11:00 +15°C° 0.1 mm 1 mps 698 mmHg 59%
    12:00 +16°C° 0.1 mm 2 mps 698 mmHg 55%
    13:00 +16°C° 0.1 mm 2 mps 698 mmHg 55%
    14:00 +16°C° 0.1 mm 2 mps 698 mmHg 56%
    15:00 +17°C° 0.1 mm 2 mps 697 mmHg 57%
    16:00 +16°C° 0.2 mm 2 mps 697 mmHg 60%
    17:00 +16°C° 0.2 mm 1 mps 697 mmHg 62%
    18:00 +15°C° 0.2 mm 1 mps 697 mmHg 65%
    19:00 +14°C° 0.2 mm 1 mps 697 mmHg 69%
    20:00 +14°C° 0.2 mm 1 mps 697 mmHg 72%
    21:00 +13°C° 0.2 mm 1 mps 697 mmHg 76%
    22:00 +12°C° 0.1 mm 1 mps 697 mmHg 78%
    23:00 +12°C° 0.1 mm 1 mps 697 mmHg 80%

    Tomorrow, 21 April, Sunday

    Time Temperature Precipitation Wind Pressure Humidity
    00:00 +12°C° 0.1 mm 1 mps 697 mmHg 82%
    01:00 +11°C° 0.2 mm 1 mps 696 mmHg 84%
    02:00 +11°C° 0.2 mm 1 mps 695 mmHg 86%
    03:00 +11°C° 0.2 mm 1 mps 695 mmHg 88%
    04:00 +11°C° 0.5 mm 1 mps 695 mmHg 88%
    05:00 +11°C° 0.5 mm 1 mps 694 mmHg 88%
    06:00 +11°C° 0.5 mm 1 mps 694 mmHg 88%
    07:00 +12°C° 0.4 mm 2 mps 694 mmHg 81%
    08:00 +13°C° 0.4 mm 2 mps 694 mmHg 74%
    09:00 +14°C° 0.4 mm 2 mps 695 mmHg 67%
    10:00 +15°C° 0.2 mm 2 mps 694 mmHg 63%
    11:00 +16°C° 0.2 mm 2 mps 694 mmHg 59%
    12:00 +16°C° 0.2 mm 2 mps 694 mmHg 55%
    13:00 +16°C° 0.2 mm 2 mps 694 mmHg 56%
    14:00 +16°C° 0.2 mm 2 mps 694 mmHg 57%
    15:00 +16°C° 0.2 mm 2 mps 693 mmHg 58%
    16:00 +16°C° 0.3 mm 2 mps 693 mmHg 63%
    17:00 +15°C° 0.3 mm 2 mps 693 mmHg 67%
    18:00 +14°C° 0.3 mm 2 mps 693 mmHg 71%
    19:00 +13°C° 0.3 mm 2 mps 693 mmHg 74%
    20:00 +13°C° 0.3 mm 2 mps 693 mmHg 77%
    21:00 +12°C° 0.3 mm 1 mps 694 mmHg 79%
    22:00 +12°C° 0.3 mm 1 mps 693 mmHg 80%
    23:00 +12°C° 0.3 mm 1 mps 693 mmHg 81%

    Day after tomorrow, 22 April, Monday

    Time Temperature Precipitation Wind Pressure Humidity
    00:00 +11°C° 0.3 mm 1 mps 693 mmHg 81%
    01:00 +11°C° 0.2 mm 1 mps 693 mmHg 82%
    02:00 +11°C° 0.2 mm 1 mps 692 mmHg 82%
    03:00 +11°C° 0.2 mm 1 mps 692 mmHg 83%
    04:00 +11°C° 0.1 mm 1 mps 692 mmHg 84%
    05:00 +10°C° 0.1 mm 1 mps 692 mmHg 85%
    06:00 +10°C° 0.1 mm 1 mps 691 mmHg 86%
    07:00 +12°C° 0.1 mm 2 mps 692 mmHg 80%
    08:00 +13°C° 0.1 mm 2 mps 692 mmHg 74%
    09:00 +14°C° 0.1 mm 2 mps 692 mmHg 68%
    10:00 +15°C° 0.1 mm 2 mps 692 mmHg 65%
    11:00 +16°C° 0.1 mm 3 mps 692 mmHg 62%
    12:00 +17°C° 0.1 mm 3 mps 692 mmHg 58%
    13:00 +17°C° 0.1 mm 3 mps 692 mmHg 56%
    14:00 +17°C° 0.1 mm 3 mps 692 mmHg 53%
    15:00 +18°C° 0.1 mm 3 mps 691 mmHg 50%
    16:00 +17°C° 0.1 mm 3 mps 691 mmHg 54%
    17:00 +17°C° 0.1 mm 3 mps 691 mmHg 58%
    18:00 +16°C° 0.1 mm 3 mps 691 mmHg 62%
    19:00 +15°C° 0.1 mm 2 mps 691 mmHg 66%
    20:00 +14°C° 0.1 mm 2 mps 691 mmHg 70%
    21:00 +13°C° 0.1 mm 2 mps 692 mmHg 74%
    22:00 +13°C° 0.1 mm 1 mps 691 mmHg 75%
    23:00 +12°C° 0.1 mm 1 mps 691 mmHg 76%

    23 April, Tuesday

    Time Temperature Precipitation Wind Pressure Humidity
    00:00 +12°C° 0.1 mm 1 mps 691 mmHg 78%
    01:00 +12°C° 0 mm 1 mps 691 mmHg 79%
    02:00 +11°C° 0 mm 1 mps 691 mmHg 80%
    03:00 +10°C° 0 mm 1 mps 690 mmHg 81%
    04:00 +10°C° 0 mm 1 mps 690 mmHg 80%
    05:00 +10°C° 0 mm 1 mps 690 mmHg 79%
    06:00 +10°C° 0 mm 1 mps 690 mmHg 78%
    07:00 +12°C° 0.1 mm 2 mps 690 mmHg 74%
    08:00 +12°C° 0.1 mm 3 mps 691 mmHg 70%
    09:00 +14°C° 0.1 mm 4 mps 691 mmHg 66%
    10:00 +12°C° 2.4 mm 4 mps 692 mmHg 74%
    11:00 +11°C° 2.4 mm 3 mps 692 mmHg 82%
    12:00 +10°C° 2.4 mm 3 mps 692 mmHg 89%
    13:00 +10°C° 0.7 mm 3 mps 692 mmHg 82%
    14:00 +10°C° 0.7 mm 2 mps 691 mmHg 75%
    15:00 +10°C° 0.7 mm 2 mps 691 mmHg 68%
    16:00 +12°C° 0 mm 2 mps 692 mmHg 66%
    17:00 +11°C° 0 mm 3 mps 692 mmHg 63%
    18:00 +11°C° 0 mm 3 mps 692 mmHg 61%
    19:00 +9°C° 0 mm 2 mps 692 mmHg 64%
    20:00 +8°C° 0 mm 2 mps 693 mmHg 67%
    21:00 +7°C° 0 mm 2 mps 693 mmHg 71%
    22:00 +6°C° 0 mm 2 mps 694 mmHg 71%
    23:00 +6°C° 0 mm 2 mps 694 mmHg 72%

    24 April, Wednesday

    Time Temperature Precipitation Wind Pressure Humidity
    00:00 +5°C° 0 mm 2 mps 694 mmHg 72%
    01:00 +5°C° 0 mm 2 mps 694 mmHg 76%
    02:00 +5°C° 0 mm 2 mps 694 mmHg 80%
    03:00 +5°C° 0 mm 2 mps 694 mmHg 83%
    04:00 +5°C° 0 mm 2 mps 695 mmHg 81%
    05:00 +5°C° 0 mm 2 mps 695 mmHg 79%
    06:00 +5°C° 0 mm 2 mps 695 mmHg 77%
    07:00 +7°C° 0 mm 2 mps 696 mmHg 68%
    08:00 +9°C° 0 mm 2 mps 697 mmHg 59%
    09:00 +12°C° 0 mm 2 mps 697 mmHg 50%
    10:00 +13°C° 0 mm 2 mps 698 mmHg 50%
    11:00 +14°C° 0 mm 2 mps 698 mmHg 49%
    12:00 +14°C° 0 mm 3 mps 698 mmHg 48%
    13:00 +14°C° 0 mm 3 mps 698 mmHg 50%
    14:00 +14°C° 0 mm 3 mps 698 mmHg 52%
    15:00 +16°C° 0 mm 3 mps 698 mmHg 54%
    16:00 +14°C° 0 mm 3 mps 698 mmHg 58%
    17:00 +14°C° 0 mm 3 mps 698 mmHg 62%
    18:00 +14°C° 0 mm 2 mps 698 mmHg 65%
    19:00 +13°C° 0 mm 2 mps 699 mmHg 71%
    20:00 +12°C° 0 mm 2 mps 699 mmHg 77%
    21:00 +11°C° 0 mm 1 mps 699 mmHg 83%
    22:00 +10°C° 0 mm 1 mps 699 mmHg 84%
    23:00 +10°C° 0 mm 1 mps 699 mmHg 85%

    25 April, Thursday

    Time Temperature Precipitation Wind Pressure Humidity
    00:00 +9°C° 0 mm 1 mps 699 mmHg 86%
    01:00 +9°C° 0 mm 1 mps 699 mmHg 83%
    02:00 +9°C° 0 mm 1 mps 699 mmHg 80%
    03:00 +9°C° 0 mm 1 mps 699 mmHg 78%
    04:00 +9°C° 0 mm 1 mps 699 mmHg 75%
    05:00 +9°C° 0 mm 1 mps 700 mmHg 71%
    06:00 +9°C° 0 mm 1 mps 700 mmHg 68%
    07:00 +10°C° 0 mm 2 mps 701 mmHg 64%
    08:00 +14°C° 0 mm 2 mps 701 mmHg 61%
    09:00 +16°C° 0 mm 2 mps 702 mmHg 58%
    10:00 +16°C° 0 mm 3 mps 702 mmHg 57%
    11:00 +17°C° 0 mm 3 mps 703 mmHg 57%
    12:00 +18°C° 0 mm 4 mps 703 mmHg 56%
    13:00 +18°C° 0 mm 4 mps 703 mmHg 58%
    14:00 +18°C° 0 mm 4 mps 703 mmHg 59%
    15:00 +18°C° 0 mm 4 mps 703 mmHg 60%
    16:00 +18°C° 0 mm 3 mps 703 mmHg 63%
    17:00 +17°C° 0 mm 3 mps 703 mmHg 66%
    18:00 +16°C° 0 mm 3 mps 703 mmHg 68%
    19:00 +15°C° 0 mm 2 mps 703 mmHg 74%
    20:00 +14°C° 0 mm 2 mps 704 mmHg 79%
    21:00 +12°C° 0 mm 1 mps 704 mmHg 84%
    22:00 +12°C° 0 mm 1 mps 704 mmHg 84%
    23:00 +12°C° 0 mm 1 mps 704 mmHg 84%
    Show more